| time (UTC) | temp F | wind direction | speed MPH | gust MPH | rain 1hr in | rain 24hr in | rain mn in | humidity % | barometer mb |
| 20260503215038 | 23 | 316 | 0.0 | 0.0 | 0.00 | 0.00 | 0.00 | ||
| 20260503214521 | 23 | 320 | 0.0 | 0.0 | 0.00 | 0.00 | 0.00 | ||
| 20260503214004 | 23 | 315 | 0.0 | 0.0 | 0.00 | 0.00 | 0.00 | ||
| 20260503213447 | 24 | 313 | 0.0 | 0.0 | 0.00 | 0.00 | 0.00 | ||
| 20260503212930 | 25 | 19 | 0.0 | 0.0 | 0.00 | 0.00 | 0.00 | ||
| 20260503212413 | 25 | 137 | 0.0 | 0.0 | 0.00 | 0.00 | 0.00 | ||
| 20260503211857 | 25 | 304 | 0.0 | 0.0 | 0.00 | 0.00 | 0.00 | ||
| 20260503211339 | 26 | 22 | 0.0 | 0.0 | 0.00 | 0.00 | 0.00 | ||
| 20260503210823 | 26 | 337 | 0.0 | 0.0 | 0.00 | 0.00 | 0.00 | ||
| 20260503210306 | 25 | 337 | 0.0 | 0.0 | 0.00 | 0.00 | 0.00 | ||
| 20260503205749 | 25 | 115 | 0.0 | 0.0 | 0.00 | 0.00 | 0.00 | ||
| 20260503205231 | 25 | 337 | 0.0 | 0.0 | 0.00 | 0.00 | 0.00 | ||
| 20260503204715 | 24 | 112 | 0.0 | 0.0 | 0.00 | 0.00 | 0.00 | ||
| 20260503204157 | 24 | 297 | 0.0 | 0.0 | 0.00 | 0.00 | 0.00 | ||
| 20260503203641 | 25 | 339 | 0.0 | 0.0 | 0.00 | 0.00 | 0.00 | ||
| 20260503203123 | 25 | 172 | 0.0 | 0.0 | 0.00 | 0.00 | 0.00 | ||
| 20260503202607 | 24 | 337 | 0.0 | 0.0 | 0.00 | 0.00 | 0.00 | ||
| 20260503202050 | 24 | 276 | 0.0 | 0.0 | 0.00 | 0.00 | 0.00 | ||
| 20260503201533 | 25 | 318 | 0.0 | 0.0 | 0.00 | 0.00 | 0.00 | ||
| 20260503201016 | 26 | 326 | 0.0 | 0.0 | 0.00 | 0.00 | 0.00 | ||
| 20260503200459 | 27 | 337 | 0.0 | 0.0 | 0.00 | 0.00 | 0.00 | ||
| 20260503195942 | 27 | 337 | 0.0 | 0.0 | 0.00 | 0.00 | 0.00 | ||
| 20260503195425 | 27 | 156 | 0.0 | 0.0 | 0.00 | 0.00 | 0.00 | ||
| 20260503194908 | 28 | 169 | 0.0 | 0.0 | 0.00 | 0.00 | 0.00 | ||
| 20260503194351 | 28 | 162 | 0.0 | 0.0 | 0.00 | 0.00 | 0.00 | ||
| 20260503193834 | 29 | 149 | 0.0 | 0.0 | 0.00 | 0.00 | 0.00 | ||
| 20260503193317 | 30 | 158 | 0.0 | 0.0 | 0.00 | 0.00 | 0.00 | ||
| 20260503192800 | 31 | 160 | 0.0 | 0.0 | 0.00 | 0.00 | 0.00 | ||
| 20260503192243 | 31 | 136 | 0.0 | 0.0 | 0.00 | 0.00 | 0.00 | ||
| 20260503191726 | 32 | 135 | 0.0 | 0.0 | 0.00 | 0.00 | 0.00 | ||
| 20260503191209 | 32 | 139 | 0.0 | 0.0 | 0.00 | 0.00 | 0.00 | ||
| 20260503190652 | 32 | 141 | 0.0 | 0.0 | 0.00 | 0.00 | 0.00 | ||
| 20260503190135 | 32 | 158 | 0.0 | 0.0 | 0.00 | 0.00 | 0.00 | ||
| 20260503185618 | 33 | 137 | 0.0 | 0.0 | 0.00 | 0.00 | 0.00 | ||
| 20260503185101 | 34 | 135 | 0.0 | 0.0 | 0.00 | 0.00 | 0.00 | ||
| 20260503184544 | 35 | 142 | 0.0 | 0.0 | 0.00 | 0.00 | 0.00 | ||
| 20260503184027 | 36 | 148 | 0.0 | 0.0 | 0.00 | 0.00 | 0.00 | ||
| 20260503183510 | 37 | 143 | 0.0 | 0.0 | 0.00 | 0.00 | 0.00 | ||
| 20260503182953 | 37 | 141 | 0.0 | 0.0 | 0.00 | 0.00 | 0.00 | ||
| 20260503182436 | 38 | 145 | 0.0 | 0.0 | 0.00 | 0.00 | 0.00 | ||
| 20260503181919 | 38 | 143 | 0.0 | 0.0 | 0.00 | 0.00 | 0.00 | ||
| 20260503181402 | 39 | 142 | 0.0 | 0.0 | 0.00 | 0.00 | 0.00 | ||
| 20260503180846 | 39 | 151 | 0.0 | 0.0 | 0.00 | 0.00 | 0.00 | ||
| 20260503180328 | 39 | 149 | 0.0 | 0.0 | 0.00 | 0.00 | 0.00 | ||
| 20260503175812 | 39 | 171 | 0.0 | 0.0 | 0.00 | 0.00 | 0.00 | ||
| 20260503175254 | 40 | 163 | 0.0 | 0.0 | 0.00 | 0.00 | 0.00 | ||
| 20260503174738 | 40 | 141 | 0.0 | 0.0 | 0.00 | 0.00 | 0.00 | ||
| 20260503174220 | 40 | 147 | 0.0 | 0.0 | 0.00 | 0.00 | 0.00 | ||
| 20260503173704 | 40 | 144 | 0.0 | 0.0 | 0.00 | 0.00 | 0.00 | ||
| 20260503173145 | 41 | 146 | 0.0 | 0.0 | 0.00 | 0.00 | 0.00 | ||
| 20260503172629 | 41 | 150 | 0.0 | 0.0 | 0.00 | 0.00 | 0.00 | ||
| 20260503172111 | 40 | 144 | 0.0 | 0.0 | 0.00 | 0.00 | 0.00 | ||
| 20260503171555 | 41 | 148 | 0.0 | 0.0 | 0.00 | 0.00 | 0.00 | ||
| 20260503171038 | 41 | 142 | 0.0 | 0.0 | 0.00 | 0.00 | 0.00 | ||
| 20260503170521 | 41 | 151 | 0.0 | 0.0 | 0.00 | 0.00 | 0.00 | ||
| 20260503160157 | 44 | 147 | 0.0 | 0.0 | 0.00 | 0.00 | 0.00 | ||
| 20260503150907 | 44 | 155 | 0.0 | 0.0 | 0.00 | 0.00 | 0.00 | ||
| 20260503150350 | 44 | 142 | 0.0 | 0.0 | 0.00 | 0.00 | 0.00 | ||
| 20260503131254 | 44 | 145 | 0.0 | 0.0 | 0.00 | 0.00 | 0.00 | ||
| 20260503130737 | 44 | 140 | 0.0 | 0.0 | 0.00 | 0.00 | 0.00 | ||
| 20260503130220 | 44 | 143 | 0.0 | 0.0 | 0.00 | 0.00 | 0.00 | ||
| 20260503110607 | 44 | 145 | 0.0 | 0.0 | 0.00 | 0.00 | 0.00 | ||
| 20260503100243 | 44 | 150 | 0.0 | 0.0 | 0.00 | 0.00 | 0.00 | ||
| 20260503090436 | 42 | 153 | 0.0 | 0.0 | 0.00 | 0.00 | 0.00 | ||
| 20260503081146 | 40 | 185 | 0.0 | 0.0 | 0.00 | 0.00 | 0.00 | ||
| 20260503080629 | 39 | 167 | 0.0 | 0.0 | 0.00 | 0.00 | 0.00 | ||
| 20260503080112 | 39 | 156 | 0.0 | 0.0 | 0.00 | 0.00 | 0.00 | ||
| 20260503072930 | 37 | 151 | 0.0 | 0.0 | 0.00 | 0.00 | 0.00 | ||
| 20260503072414 | 36 | 151 | 0.0 | 0.0 | 0.00 | 0.00 | 0.00 | ||
| 20260503071856 | 36 | 151 | 0.0 | 0.0 | 0.00 | 0.00 | 0.00 | ||
| 20260503070822 | 37 | 191 | 0.0 | 0.0 | 0.00 | 0.00 | 0.00 | ||
| 20260503070307 | 37 | 171 | 0.0 | 0.0 | 0.00 | 0.00 | 0.00 | ||
| 20260503054908 | 33 | 153 | 0.0 | 0.0 | 0.00 | 0.00 | 0.00 | ||
| 20260503054351 | 32 | 166 | 0.0 | 0.0 | 0.00 | 0.00 | 0.00 | ||
| 20260503053834 | 33 | 149 | 0.0 | 0.0 | 0.00 | 0.00 | 0.00 | ||
| 20260503053317 | 32 | 142 | 0.0 | 0.0 | 0.00 | 0.00 | 0.00 | ||
| 20260503052800 | 32 | 215 | 0.0 | 0.0 | 0.00 | 0.00 | 0.00 | ||
| 20260503052243 | 32 | 266 | 0.0 | 0.0 | 0.00 | 0.00 | 0.00 | ||
| 20260503051726 | 32 | 315 | 0.0 | 0.0 | 0.00 | 0.00 | 0.00 | ||
| 20260503051607 | 29 | 261 | 0.0 | 0.0 | 0.00 | 0.00 | 0.00 | ||
| 20260503044544 | 29 | 270 | 0.0 | 0.0 | 0.00 | 0.00 | 0.00 | ||
| 20260503044027 | 29 | 305 | 0.0 | 0.0 | 0.00 | 0.00 | 0.00 | ||
| 20260503043510 | 28 | 165 | 0.0 | 0.0 | 0.00 | 0.00 | 0.00 | ||
| 20260503042953 | 28 | 94 | 0.0 | 0.0 | 0.00 | 0.00 | 0.00 | ||
| 20260503042437 | 27 | 104 | 0.0 | 0.0 | 0.00 | 0.00 | 0.00 | ||
| 20260503041919 | 28 | 288 | 0.0 | 0.0 | 0.00 | 0.00 | 0.00 | ||
| 20260503041403 | 28 | 315 | 0.0 | 0.0 | 0.00 | 0.00 | 0.00 | ||
| 20260503040845 | 27 | 337 | 0.0 | 0.0 | 0.00 | 0.00 | 0.00 | ||
| 20260503040329 | 27 | 337 | 0.0 | 0.0 | 0.00 | 0.00 | 0.00 | ||
| 20260503035811 | 27 | 275 | 0.0 | 0.0 | 0.00 | 0.00 | 0.00 | ||
| 20260503035255 | 27 | 315 | 0.0 | 0.0 | 0.00 | 0.00 | 0.00 | ||
| 20260503034737 | 28 | 315 | 0.0 | 0.0 | 0.00 | 0.00 | 0.00 | ||
| 20260503034221 | 28 | 337 | 0.0 | 0.0 | 0.00 | 0.00 | 0.00 | ||
| 20260503033703 | 28 | 337 | 0.0 | 0.0 | 0.00 | 0.00 | 0.00 | ||
| 20260503033147 | 28 | 67 | 0.0 | 0.0 | 0.00 | 0.00 | 0.00 | ||
| 20260503032630 | 29 | 337 | 0.0 | 0.0 | 0.00 | 0.00 | 0.00 | ||
| 20260503032113 | 29 | 337 | 0.0 | 0.0 | 0.00 | 0.00 | 0.00 | ||
| 20260503031556 | 29 | 339 | 0.0 | 0.0 | 0.00 | 0.00 | 0.00 | ||
| 20260503031039 | 29 | 315 | 0.0 | 0.0 | 0.00 | 0.00 | 0.00 | ||
| 20260503030522 | 30 | 315 | 0.0 | 0.0 | 0.00 | 0.00 | 0.00 | ||
| 20260503030005 | 31 | 317 | 0.0 | 0.0 | 0.00 | 0.00 | 0.00 | ||
| 20260503025448 | 31 | 240 | 0.0 | 0.0 | 0.00 | 0.00 | 0.00 | ||
| 20260503024931 | 30 | 22 | 0.0 | 0.0 | 0.00 | 0.00 | 0.00 | ||
| 20260503024414 | 30 | 7 | 0.0 | 0.0 | 0.00 | 0.00 | 0.00 | ||
| 20260503023857 | 30 | 318 | 0.0 | 0.0 | 0.00 | 0.00 | 0.00 | ||
| 20260503023340 | 30 | 216 | 0.0 | 0.0 | 0.00 | 0.00 | 0.00 | ||
| 20260503022823 | 30 | 147 | 0.0 | 0.0 | 0.00 | 0.00 | 0.00 | ||
| 20260503022306 | 30 | 45 | 0.0 | 0.0 | 0.00 | 0.00 | 0.00 | ||
| 20260503021749 | 31 | 324 | 0.0 | 0.0 | 0.00 | 0.00 | 0.00 | ||
| 20260503021232 | 31 | 315 | 0.0 | 0.0 | 0.00 | 0.00 | 0.00 | ||
| 20260503020715 | 31 | 336 | 0.0 | 0.0 | 0.00 | 0.00 | 0.00 | ||
| 20260503020158 | 31 | 9 | 0.0 | 0.0 | 0.00 | 0.00 | 0.00 | ||
| 20260503015641 | 31 | 183 | 0.0 | 0.0 | 0.00 | 0.00 | 0.00 | ||
| 20260503015124 | 31 | 135 | 0.0 | 0.0 | 0.00 | 0.00 | 0.00 | ||
| 20260503014607 | 31 | 136 | 0.0 | 0.0 | 0.00 | 0.00 | 0.00 | ||
| 20260503014050 | 31 | 124 | 0.0 | 0.0 | 0.00 | 0.00 | 0.00 | ||
| 20260503013533 | 31 | 153 | 0.0 | 0.0 | 0.00 | 0.00 | 0.00 | ||
| 20260503013016 | 31 | 154 | 0.0 | 0.0 | 0.00 | 0.00 | 0.00 | ||
| 20260503012459 | 31 | 145 | 0.0 | 0.0 | 0.00 | 0.00 | 0.00 | ||
| 20260503011942 | 31 | 297 | 0.0 | 0.0 | 0.00 | 0.00 | 0.00 | ||
| 20260503011425 | 31 | 337 | 0.0 | 0.0 | 0.00 | 0.00 | 0.00 | ||
| 20260503010908 | 31 | 97 | 0.0 | 0.0 | 0.00 | 0.00 | 0.00 | ||
| 20260503010351 | 31 | 337 | 0.0 | 0.0 | 0.00 | 0.00 | 0.00 | ||
| 20260503005834 | 31 | 199 | 0.0 | 0.0 | 0.00 | 0.00 | 0.00 | ||
| 20260503005318 | 31 | 263 | 0.0 | 0.0 | 0.00 | 0.00 | 0.00 | ||
| 20260503004800 | 31 | 270 | 0.0 | 0.0 | 0.00 | 0.00 | 0.00 | ||
| 20260503004244 | 32 | 78 | 0.0 | 0.0 | 0.00 | 0.00 | 0.00 | ||
| 20260503003210 | 32 | 90 | 0.0 | 0.0 | 0.00 | 0.00 | 0.00 | ||
| 20260503002652 | 32 | 315 | 0.0 | 0.0 | 0.00 | 0.00 | 0.00 | ||
| 20260503002136 | 32 | 287 | 0.0 | 0.0 | 0.00 | 0.00 | 0.00 | ||
| 20260503001618 | 32 | 270 | 0.0 | 0.0 | 0.00 | 0.00 | 0.00 | ||
| 20260503000545 | 32 | 330 | 0.0 | 0.0 | 0.00 | 0.00 | 0.00 | ||
| 20260503000028 | 32 | 315 | 0.0 | 0.0 | 0.00 | 0.00 | 0.00 | ||
| 20260502235511 | 32 | 127 | 0.0 | 0.0 | 0.00 | 0.00 | 0.00 | ||
| 20260502234954 | 32 | 306 | 0.0 | 0.0 | 0.00 | 0.00 | 0.00 | ||
| 20260502234437 | 33 | 183 | 0.0 | 0.0 | 0.00 | 0.00 | 0.00 | ||
| 20260502233920 | 33 | 189 | 0.0 | 0.0 | 0.00 | 0.00 | 0.00 | ||
| 20260502233403 | 33 | 202 | 0.0 | 0.0 | 0.00 | 0.00 | 0.00 | ||
| 20260502232846 | 33 | 154 | 0.0 | 0.0 | 0.00 | 0.00 | 0.00 | ||
| 20260502232329 | 33 | 167 | 0.0 | 0.0 | 0.00 | 0.00 | 0.00 | ||
| 20260502231812 | 33 | 180 | 0.0 | 0.0 | 0.00 | 0.00 | 0.00 | ||
| 20260502231255 | 33 | 140 | 0.0 | 0.0 | 0.00 | 0.00 | 0.00 | ||
| 20260502230738 | 34 | 146 | 0.0 | 0.0 | 0.00 | 0.00 | 0.00 | ||
| 20260502230221 | 34 | 137 | 0.0 | 0.0 | 0.00 | 0.00 | 0.00 | ||
| 20260502225704 | 34 | 185 | 0.0 | 0.0 | 0.00 | 0.00 | 0.00 | ||
| 20260502225147 | 34 | 135 | 0.0 | 0.0 | 0.00 | 0.00 | 0.00 | ||
| 20260502224630 | 34 | 147 | 0.0 | 0.0 | 0.00 | 0.00 | 0.00 | ||
| 20260502224113 | 34 | 136 | 0.0 | 0.0 | 0.00 | 0.00 | 0.00 | ||
| 20260502223556 | 34 | 126 | 0.0 | 0.0 | 0.00 | 0.00 | 0.00 | ||
| 20260502223040 | 34 | 270 | 0.0 | 0.0 | 0.00 | 0.00 | 0.00 | ||
| 20260502222522 | 34 | 274 | 0.0 | 0.0 | 0.00 | 0.00 | 0.00 | ||
| 20260502222005 | 34 | 315 | 0.0 | 0.0 | 0.00 | 0.00 | 0.00 | ||
| 20260502221448 | 34 | 315 | 0.0 | 0.0 | 0.00 | 0.00 | 0.00 | ||
| 20260502220931 | 34 | 316 | 0.0 | 0.0 | 0.00 | 0.00 | 0.00 | ||
| 20260502220414 | 34 | 320 | 0.0 | 0.0 | 0.00 | 0.00 | 0.00 | ||
| 20260502215857 | 34 | 217 | 0.0 | 0.0 | 0.00 | 0.00 | 0.00 | ||
| 20260502215340 | 34 | 161 | 0.0 | 0.0 | 0.00 | 0.00 | 0.00 |